| time (UTC) | temp F | wind direction | speed MPH | gust MPH | rain 1hr in | rain 24hr in | rain mn in | humidity % | barometer mb |
| 20260510170021 | 55 | 360 | 3.0 | 8.0 | 0.00 | 0.11 | 0.05 | 61 | 1013.7 |
| 20260510164524 | 55 | 15 | 4.0 | 9.0 | 0.00 | 0.11 | 0.05 | 67 | 1013.8 |
| 20260510163014 | 55 | 13 | 2.0 | 6.0 | 0.00 | 0.11 | 0.05 | 71 | 1013.8 |
| 20260510161512 | 54 | 32 | 0.0 | 8.0 | 0.00 | 0.11 | 0.05 | 72 | 1013.7 |
| 20260510160011 | 54 | 341 | 4.0 | 6.0 | 0.00 | 0.11 | 0.05 | 72 | 1013.5 |
| 20260510154510 | 54 | 5 | 2.0 | 6.0 | 0.00 | 0.12 | 0.05 | 73 | 1013.5 |
| 20260510153009 | 55 | 39 | 0.0 | 4.0 | 0.00 | 0.12 | 0.05 | 73 | 1013.4 |
| 20260510151507 | 54 | 46 | 4.0 | 8.0 | 0.00 | 0.12 | 0.05 | 75 | 1013.3 |
| 20260510150126 | 54 | 38 | 2.0 | 6.0 | 0.00 | 0.12 | 0.05 | 75 | 1013.1 |
| 20260510144503 | 54 | 24 | 1.0 | 8.0 | 0.00 | 0.14 | 0.05 | 76 | 1013.1 |
| 20260510143102 | 52 | 19 | 4.0 | 8.0 | 0.00 | 0.14 | 0.05 | 78 | 1012.9 |
| 20260510141557 | 52 | 349 | 2.0 | 5.0 | 0.00 | 0.14 | 0.05 | 81 | 1012.8 |
| 20260510140054 | 51 | 36 | 3.0 | 6.0 | 0.01 | 0.14 | 0.05 | 85 | 1012.6 |
| 20260510134556 | 51 | 360 | 4.0 | 9.0 | 0.01 | 0.16 | 0.05 | 87 | 1012.4 |
| 20260510133050 | 51 | 335 | 4.0 | 11.0 | 0.01 | 0.16 | 0.05 | 91 | 1012.1 |
| 20260510131548 | 51 | 348 | 3.0 | 10.0 | 0.01 | 0.16 | 0.05 | 93 | 1012.1 |
| 20260510130047 | 51 | 331 | 0.0 | 2.0 | 0.00 | 0.15 | 0.04 | 93 | 1011.9 |
| 20260510124550 | 51 | 227 | 0.0 | 2.0 | 0.00 | 0.22 | 0.04 | 93 | 1011.8 |
| 20260510123044 | 51 | 227 | 0.0 | 1.0 | 0.00 | 0.22 | 0.04 | 93 | 1011.7 |
| 20260510121542 | 51 | 227 | 0.0 | 1.0 | 0.00 | 0.22 | 0.04 | 93 | 1011.5 |
| 20260510120041 | 50 | 227 | 0.0 | 1.0 | 0.00 | 0.22 | 0.04 | 93 | 1011.2 |
| 20260510114550 | 49 | 227 | 0.0 | 1.0 | 0.00 | 0.28 | 0.04 | 93 | 1011.2 |
| 20260510113038 | 49 | 227 | 0.0 | 1.0 | 0.00 | 0.28 | 0.04 | 93 | 1010.9 |
| 20260510111539 | 49 | 227 | 0.0 | 2.0 | 0.00 | 0.28 | 0.04 | 93 | 1010.6 |
| 20260510110044 | 48 | 227 | 0.0 | 1.0 | 0.00 | 0.28 | 0.04 | 93 | 1010.4 |
| 20260510104534 | 48 | 227 | 0.0 | 1.0 | 0.00 | 0.38 | 0.04 | 93 | 1010.1 |
| 20260510103037 | 48 | 227 | 0.0 | 2.0 | 0.00 | 0.38 | 0.04 | 92 | 1009.7 |
| 20260510101533 | 48 | 227 | 0.0 | 2.0 | 0.00 | 0.38 | 0.04 | 92 | 1009.6 |
| 20260510100033 | 48 | 227 | 1.0 | 2.0 | 0.00 | 0.38 | 0.04 | 92 | 1009.6 |
| 20260510094542 | 48 | 227 | 0.0 | 1.0 | 0.00 | 0.38 | 0.04 | 92 | 1009.4 |
| 20260510093033 | 48 | 227 | 1.0 | 3.0 | 0.00 | 0.38 | 0.04 | 92 | 1009.1 |
| 20260510091534 | 48 | 222 | 1.0 | 2.0 | 0.00 | 0.38 | 0.04 | 92 | 1009.1 |
| 20260510090028 | 48 | 222 | 0.0 | 1.0 | 0.00 | 0.38 | 0.04 | 92 | 1008.8 |
| 20260510084527 | 48 | 222 | 0.0 | 1.0 | 0.00 | 0.38 | 0.04 | 92 | 1008.6 |
| 20260510083044 | 48 | 222 | 0.0 | 1.0 | 0.00 | 0.38 | 0.04 | 92 | 1008.7 |
| 20260510081525 | 48 | 222 | 0.0 | 1.0 | 0.00 | 0.38 | 0.04 | 92 | 1008.5 |
| 20260510080027 | 48 | 222 | 0.0 | 2.0 | 0.00 | 0.38 | 0.04 | 92 | 1008.4 |
| 20260510074523 | 48 | 222 | 0.0 | 2.0 | 0.00 | 0.39 | 0.04 | 91 | 1008.2 |
| 20260510073022 | 49 | 229 | 2.0 | 6.0 | 0.00 | 0.39 | 0.04 | 91 | 1008.2 |
| 20260510071520 | 49 | 206 | 0.0 | 2.0 | 0.00 | 0.39 | 0.04 | 91 | 1007.8 |
| 20260510070016 | 49 | 206 | 1.0 | 3.0 | 0.00 | 0.39 | 0.04 | 91 | 1008.2 |
| 20260510064515 | 50 | 217 | 0.0 | 5.0 | 0.00 | 0.41 | 0.04 | 91 | 1008.0 |
| 20260510063016 | 50 | 146 | 2.0 | 4.0 | 0.00 | 0.41 | 0.04 | 91 | 1008.1 |
| 20260510061512 | 50 | 329 | 2.0 | 7.0 | 0.00 | 0.41 | 0.04 | 91 | 1007.8 |
| 20260510060014 | 50 | 236 | 0.0 | 3.0 | 0.01 | 0.41 | 0.04 | 91 | 1009.0 |
| 20260510054510 | 50 | 221 | 1.0 | 4.0 | 0.01 | 0.42 | 0.04 | 91 | 1009.0 |
| 20260510053006 | 50 | 215 | 1.0 | 6.0 | 0.03 | 0.42 | 0.04 | 91 | 1008.7 |
| 20260510051504 | 51 | 188 | 1.0 | 5.0 | 0.04 | 0.42 | 0.04 | 91 | 1009.6 |
| 20260510050001 | 51 | 197 | 3.0 | 5.0 | 0.03 | 0.41 | 0.03 | 91 | 1009.8 |
| 20260510044502 | 51 | 192 | 1.0 | 4.0 | 0.02 | 0.40 | 0.02 | 91 | 1010.3 |
| 20260510043100 | 51 | 191 | 1.0 | 3.0 | 0.01 | 0.39 | 0.01 | 91 | 1010.0 |
| 20260510041558 | 51 | 235 | 2.0 | 4.0 | 0.00 | 0.38 | 0.00 | 91 | 1010.2 |
| 20260510040057 | 51 | 336 | 0.0 | 3.0 | 0.00 | 0.38 | 0.00 | 91 | 1009.8 |
| 20260510034554 | 49 | 187 | 1.0 | 3.0 | 0.00 | 0.38 | 0.38 | 90 | 1009.7 |
| 20260510033104 | 49 | 186 | 0.0 | 2.0 | 0.00 | 0.38 | 0.38 | 90 | 1008.3 |
| 20260510031554 | 49 | 186 | 0.0 | 2.0 | 0.00 | 0.38 | 0.38 | 90 | 1008.3 |
| 20260510024555 | 49 | 186 | 0.0 | 3.0 | 0.00 | 0.38 | 0.38 | 89 | 1008.1 |
| 20260510023053 | 50 | 186 | 0.0 | 2.0 | 0.00 | 0.38 | 0.38 | 88 | 1007.6 |
| 20260510021556 | 50 | 186 | 0.0 | 1.0 | 0.00 | 0.38 | 0.38 | 88 | 1007.5 |
| 20260510020051 | 51 | 186 | 0.0 | 1.0 | 0.00 | 0.38 | 0.38 | 87 | 1007.7 |
| 20260510014551 | 51 | 186 | 0.0 | 2.0 | 0.00 | 0.38 | 0.38 | 87 | 1007.6 |
| 20260510013049 | 52 | 186 | 1.0 | 2.0 | 0.00 | 0.38 | 0.38 | 86 | 1007.3 |
| 20260510011550 | 52 | 186 | 0.0 | 2.0 | 0.00 | 0.38 | 0.38 | 86 | 1007.4 |
| 20260510010049 | 53 | 186 | 0.0 | 7.0 | 0.00 | 0.38 | 0.38 | 86 | 1007.3 |
| 20260510004550 | 54 | 103 | 1.0 | 5.0 | 0.00 | 0.38 | 0.38 | 85 | 1007.0 |
| 20260510003047 | 54 | 171 | 2.0 | 6.0 | 0.00 | 0.38 | 0.38 | 84 | 1006.6 |
| 20260510001548 | 55 | 206 | 1.0 | 5.0 | 0.00 | 0.38 | 0.38 | 84 | 1006.6 |
| 20260510000046 | 55 | 194 | 2.0 | 5.0 | 0.00 | 0.38 | 0.38 | 83 | 1006.8 |
| 20260509234546 | 56 | 202 | 3.0 | 6.0 | 0.00 | 0.38 | 0.38 | 83 | 1006.5 |
| 20260509233044 | 56 | 215 | 1.0 | 6.0 | 0.00 | 0.38 | 0.38 | 83 | 1006.3 |
| 20260509231545 | 56 | 234 | 3.0 | 9.0 | 0.00 | 0.38 | 0.38 | 83 | 1006.1 |
| 20260509230044 | 56 | 211 | 4.0 | 8.0 | 0.00 | 0.38 | 0.38 | 84 | 1006.1 |
| 20260509224543 | 56 | 206 | 4.0 | 9.0 | 0.00 | 0.38 | 0.38 | 83 | 1006.3 |
| 20260509223042 | 56 | 227 | 8.0 | 11.0 | 0.00 | 0.38 | 0.38 | 83 | 1006.5 |
| 20260509221541 | 56 | 206 | 3.0 | 12.0 | 0.00 | 0.38 | 0.38 | 83 | 1006.4 |
| 20260509220041 | 56 | 208 | 3.0 | 10.0 | 0.00 | 0.38 | 0.38 | 83 | 1006.4 |
| 20260509214540 | 56 | 204 | 5.0 | 10.0 | 0.00 | 0.38 | 0.38 | 84 | 1006.5 |
| 20260509213039 | 56 | 215 | 6.0 | 14.0 | 0.00 | 0.38 | 0.38 | 85 | 1006.4 |
| 20260509211537 | 56 | 221 | 6.0 | 11.0 | 0.00 | 0.38 | 0.38 | 87 | 1006.7 |
| 20260509210044 | 55 | 219 | 6.0 | 11.0 | 0.00 | 0.38 | 0.38 | 88 | 1006.8 |
| 20260509204540 | 55 | 205 | 1.0 | 9.0 | 0.00 | 0.38 | 0.38 | 90 | 1007.0 |
| 20260509203038 | 54 | 211 | 2.0 | 8.0 | 0.00 | 0.38 | 0.38 | 89 | 1007.1 |
| 20260509201529 | 54 | 207 | 2.0 | 9.0 | 0.01 | 0.38 | 0.38 | 90 | 1007.2 |
| 20260509200027 | 53 | 199 | 4.0 | 10.0 | 0.01 | 0.38 | 0.38 | 90 | 1007.2 |
| 20260509194525 | 53 | 196 | 5.0 | 9.0 | 0.02 | 0.38 | 0.38 | 90 | 1007.5 |
| 20260509193023 | 53 | 191 | 3.0 | 7.0 | 0.03 | 0.38 | 0.38 | 90 | 1007.6 |
| 20260509191523 | 53 | 212 | 1.0 | 7.0 | 0.03 | 0.37 | 0.37 | 90 | 1007.7 |
| 20260509190024 | 52 | 196 | 2.0 | 5.0 | 0.04 | 0.37 | 0.37 | 90 | 1007.9 |
| 20260509184521 | 52 | 204 | 1.0 | 4.0 | 0.04 | 0.36 | 0.36 | 90 | 1008.0 |
| 20260509183020 | 52 | 211 | 0.0 | 7.0 | 0.03 | 0.35 | 0.35 | 90 | 1007.9 |
| 20260509181518 | 52 | 311 | 1.0 | 9.0 | 0.02 | 0.34 | 0.34 | 90 | 1007.8 |
| 20260509180016 | 52 | 215 | 3.0 | 8.0 | 0.01 | 0.33 | 0.33 | 91 | 1007.8 |
| 20260509174517 | 52 | 192 | 3.0 | 7.0 | 0.00 | 0.32 | 0.32 | 91 | 1007.8 |
| 20260509173018 | 52 | 194 | 3.0 | 12.0 | 0.00 | 0.32 | 0.32 | 92 | 1007.9 |
| 20260509171513 | 52 | 209 | 4.0 | 9.0 | 0.00 | 0.32 | 0.32 | 92 | 1007.8 |